Weather History for Erie, CO

Change the Weather History Date:

Wednesday, September 3, 2014

  Actual Average (KBJC) Record (KBJC)
Temperature  
Mean Temperature 72 °F -  
Max Temperature 94 °F 81 °F 101 °F (1990)
Min Temperature 49 °F 56 °F 43 °F (1988)
Cooling Degree Days 6    
Growing Degree Days 22 (Base 50)    
Moisture  
Dew Point 40 °F    
Average Humidity 42    
Maximum Humidity 86    
Minimum Humidity 10    
Precipitation  
Precipitation 0.00 in - - ()
Sea Level Pressure  
Sea Level Pressure 29.88 in    
Wind  
Wind Speed 2 mph (SSE)    
Max Wind Speed 12 mph    
Max Gust Speed 22 mph    
Visibility 10 miles    
Events      
Averages and records for this station are not official NWS values.
T = Trace of Precipitation, MM = Missing Value Source: NWS Daily Summary

Daily Weather History Graph

Daily Weather History Graph

Search for Another Location

Airport:

Trip Planner

Search our weather history database for the weather conditions in past years. The results will help you decide how hot, cold, wet, or windy it might be!

Date:

Astronomy

Sep. 03, 2014 Rise Set
Actual Time 6:29 AM MDT 7:28 PM MDT
Civil Twilight 6:02 AM MDT 7:56 PM MDT
Nautical Twilight 5:29 AM MDT 8:28 PM MDT
Astronomical Twilight 4:55 AM MDT 9:02 PM MDT
Moon 3:12 PM MDT (9/3) 12:26 AM MDT (9/3)
Length of Visible Light 13h 53m
Length of Day
12h 58m
Waxing Gibbous, 64% of the Moon is Illuminated
Sep 3
Waxing Gibbous
Sep 8
Full
Sep 15
Last Quarter
Sep 24
New
Oct 1
First Quarter

Hourly Weather History & Observations

Time (MDT) Temp. Dew Point Humidity Pressure Visibility Wind Dir Wind Speed Gust Speed Precip Events Conditions
12:15 AM 61.7 °F 49.8 °F 65% 29.94 in 10.0 mi WSW 3.5 mph - N/A   Clear
12:35 AM 59.5 °F 49.8 °F 70% 29.94 in 10.0 mi Calm Calm - N/A   Clear
12:55 AM 59.0 °F 49.6 °F 71% 29.94 in 10.0 mi Calm Calm - N/A   Clear
1:15 AM 58.3 °F 48.7 °F 71% 29.94 in 10.0 mi Calm Calm - N/A   Clear
1:35 AM 57.2 °F 48.0 °F 71% 29.94 in 10.0 mi Calm Calm - N/A   Clear
1:55 AM 56.5 °F 47.7 °F 72% 29.93 in 10.0 mi Calm Calm - N/A   Clear
2:15 AM 55.9 °F 47.7 °F 74% 29.93 in 10.0 mi Calm Calm - N/A   Clear
2:35 AM 53.6 °F 47.5 °F 80% 29.93 in 10.0 mi Calm Calm - N/A   Clear
2:55 AM 54.5 °F 47.5 °F 77% 29.93 in 10.0 mi NNE 3.5 mph - N/A   Clear
3:15 AM 51.6 °F 46.6 °F 83% 29.94 in 10.0 mi Calm Calm - N/A   Clear
3:35 AM 52.3 °F 46.9 °F 82% 29.93 in 10.0 mi Calm Calm - N/A   Clear
3:55 AM 51.4 °F 46.2 °F 82% 29.93 in 10.0 mi Calm Calm - N/A   Clear
4:15 AM 49.5 °F 45.5 °F 86% 29.93 in 10.0 mi Calm Calm - N/A   Clear
4:35 AM 49.8 °F 45.7 °F 86% 29.93 in 10.0 mi Calm Calm - N/A   Clear
4:55 AM 50.0 °F 45.5 °F 85% 29.93 in 10.0 mi Calm Calm - N/A   Clear
5:15 AM 50.4 °F 44.8 °F 81% 29.92 in 10.0 mi WSW 3.5 mph - N/A   Clear
5:35 AM 50.7 °F 44.6 °F 80% 29.92 in 10.0 mi Calm Calm - N/A   Clear
5:55 AM 51.6 °F 44.2 °F 76% 29.92 in 10.0 mi Calm Calm - N/A   Clear
6:15 AM 52.5 °F 43.3 °F 71% 29.92 in 10.0 mi South 5.8 mph - N/A   Clear
6:35 AM 50.7 °F 44.1 °F 78% 29.92 in 10.0 mi Calm Calm - N/A   Clear
6:55 AM 53.4 °F 44.2 °F 71% 29.92 in 10.0 mi South 4.6 mph - N/A   Clear
7:15 AM 54.1 °F 45.7 °F 73% 29.92 in 10.0 mi South 5.8 mph - N/A   Clear
7:35 AM 58.8 °F 47.3 °F 66% 29.93 in 10.0 mi West 4.6 mph - N/A   Clear
7:55 AM 61.5 °F 48.2 °F 62% 29.93 in 10.0 mi Calm Calm - N/A   Clear
8:15 AM 66.2 °F 46.2 °F 49% 29.93 in 10.0 mi South 4.6 mph - N/A   Clear
8:35 AM 69.6 °F 41.4 °F 36% 29.92 in 10.0 mi South 3.5 mph - N/A   Clear
8:55 AM 71.8 °F 43.2 °F 36% 29.92 in 10.0 mi Calm Calm - N/A   Clear
9:15 AM 74.5 °F 43.3 °F 33% 29.92 in 10.0 mi Calm Calm - N/A   Clear
9:35 AM 78.4 °F 45.9 °F 32% 29.92 in 10.0 mi SE 4.6 mph - N/A   Clear
9:55 AM 82.8 °F 41.2 °F 23% 29.92 in 10.0 mi South 5.8 mph - N/A   Clear
10:15 AM 84.6 °F 37.9 °F 19% 29.92 in 10.0 mi South 9.2 mph - N/A   Clear
10:35 AM 86.5 °F 38.5 °F 18% 29.91 in 10.0 mi SSW 8.1 mph - N/A   Clear
10:55 AM 88.0 °F 31.6 °F 13% 29.90 in 10.0 mi SW 9.2 mph 21.9 mph N/A   Clear
11:15 AM 88.9 °F 33.4 °F 14% 29.90 in 10.0 mi SSE 8.1 mph 19.6 mph N/A   Clear
11:35 AM 89.6 °F 33.6 °F 14% 29.90 in 10.0 mi SSW 11.5 mph 16.1 mph N/A   Clear
11:55 AM 90.5 °F 33.4 °F 13% 29.90 in 10.0 mi Calm Calm - N/A   Clear
12:15 PM 90.3 °F 32.0 °F 13% 29.89 in 10.0 mi SSW 4.6 mph 18.4 mph N/A   Clear
12:35 PM 90.1 °F 31.5 °F 12% 29.88 in 10.0 mi ESE 6.9 mph - N/A   Clear
12:55 PM 91.8 °F 32.4 °F 12% 29.88 in 10.0 mi SSE 8.1 mph - N/A   Clear
1:15 PM 91.6 °F 32.0 °F 12% 29.87 in 10.0 mi South 8.1 mph - N/A   Clear
1:35 PM 91.8 °F 32.0 °F 12% 29.86 in 10.0 mi SE 8.1 mph - N/A   Clear
1:55 PM 92.1 °F 31.6 °F 12% 29.85 in 10.0 mi ESE 6.9 mph - N/A   Clear
2:15 PM 93.0 °F 31.8 °F 11% 29.85 in 10.0 mi SSE 5.8 mph - N/A   Clear
2:35 PM 92.8 °F 31.6 °F 11% 29.84 in 10.0 mi ESE 9.2 mph - N/A   Clear
2:55 PM 93.6 °F 31.3 °F 11% 29.83 in 10.0 mi SE 5.8 mph - N/A   Clear
3:15 PM 92.7 °F 29.8 °F 11% 29.83 in 10.0 mi Calm Calm - N/A   Clear
3:35 PM 93.2 °F 29.8 °F 10% 29.83 in 10.0 mi Calm Calm - N/A   Clear
3:55 PM 93.2 °F 28.6 °F 10% 29.81 in 10.0 mi Calm Calm - N/A   Clear
4:15 PM 94.3 °F 30.4 °F 10% 29.81 in 10.0 mi SSE 5.8 mph - N/A   Clear
4:35 PM 93.9 °F 29.1 °F 10% 29.81 in 10.0 mi ENE 5.8 mph - N/A   Clear
4:55 PM 93.2 °F 27.9 °F 10% 29.80 in 10.0 mi Calm Calm - N/A   Clear
5:15 PM 93.4 °F 28.8 °F 10% 29.80 in 10.0 mi Calm Calm - N/A   Clear
5:35 PM 93.0 °F 28.9 °F 10% 29.80 in 10.0 mi Calm Calm - N/A   Clear
5:55 PM 92.8 °F 31.3 °F 11% 29.80 in 10.0 mi ESE 5.8 mph - N/A   Clear
6:15 PM 88.0 °F 31.6 °F 13% 29.80 in 10.0 mi ESE 5.8 mph - N/A   Clear
6:35 PM 85.8 °F 34.3 °F 16% 29.80 in 10.0 mi East 6.9 mph - N/A   Clear
6:55 PM 85.8 °F 37.4 °F 18% 29.80 in 10.0 mi East 4.6 mph - N/A   Clear
7:15 PM 81.9 °F 41.2 °F 24% 29.80 in 10.0 mi East 3.5 mph - N/A   Clear
7:35 PM 76.8 °F 41.0 °F 28% 29.81 in 10.0 mi Calm Calm - N/A   Clear
7:55 PM 78.6 °F 39.0 °F 24% 29.81 in 10.0 mi Calm Calm - N/A   Clear
8:15 PM 69.8 °F 45.5 °F 42% 29.82 in 10.0 mi SW 5.8 mph - N/A   Clear
8:35 PM 70.0 °F 46.8 °F 43% 29.83 in 10.0 mi SW 3.5 mph - N/A   Clear
8:55 PM 70.7 °F 46.2 °F 42% 29.84 in 10.0 mi Calm Calm - N/A   Clear
9:15 PM 70.0 °F 45.3 °F 41% 29.84 in 10.0 mi SSW 3.5 mph - N/A   Clear
9:55 PM 67.3 °F 45.1 °F 45% 29.84 in 10.0 mi Calm Calm - N/A   Clear
10:15 PM 64.9 °F 46.4 °F 51% 29.85 in 10.0 mi Calm Calm - N/A   Clear
10:35 PM 64.6 °F 44.6 °F 48% 29.85 in 10.0 mi Calm Calm - N/A   Clear
10:55 PM 63.5 °F 43.0 °F 47% 29.84 in 10.0 mi Calm Calm - N/A   Clear
11:15 PM 61.9 °F 44.4 °F 53% 29.84 in 10.0 mi Calm Calm - N/A   Clear
11:35 PM 60.1 °F 45.0 °F 57% 29.84 in 10.0 mi Calm Calm - N/A   Clear
11:55 PM 62.1 °F 43.2 °F 50% 29.84 in 10.0 mi SSW 3.5 mph - N/A   Clear